Location: Biharia
(46.4333°N, 22.8000°E)
Time: 08:05:28
(UTC+00:00)

Okean-O - Visible Passes

Search period start: 25 May 2022 00:00
Search period end: 04 June 2022 00:00
Orbit: 638 x 640 km, 98.1° (Epoch: 24 May)

Date Brightness Start Highest point End Pass type
(mag) Time Alt. Az. Time Alt. Az. Time Alt. Az.
26 May 4.4 18:45:41 10° SSW 18:49:36 31° W 18:53:33 10° NNW visible
27 May 5.2 19:09:47 10° SW 19:12:54 19° W 19:16:02 10° NW visible
28 May 5.6 19:35:05 10° WSW 19:36:17 11° W 19:37:28 10° WNW visible
30 May 4.3 18:41:31 10° SSW 18:45:32 34° W 18:49:35 10° NNW visible
31 May 5.1 19:05:30 10° SW 19:08:48 20° W 19:12:09 10° NW visible
01 Jun 5.5 19:30:22 10° WSW 19:32:10 12° W 19:33:58 10° WNW visible
